Location: Drocourt
(49.0571°N, 1.7669°E)
Time: 20:46:54
(UTC+00:00)

S-56A Canister/Altair - Pass Details

Date: 15 April 2024
Orbit: 638 x 2488 km, 38.9° (Epoch: 20 May)

Event Time Altitude Azimuth Distance (km) Brightness Sun altitude
Rises 17:36:12 0° 213° (SSW) 3,460 11.3 10.3°
Reaches altitude 10° 17:38:52 10° 199° (SSW) 2,729 10.6 9.9°
Maximum altitude 17:44:07 25° 147° (SSE) 2,247 9.7 9.1°
Drops below altitude 10° 17:51:08 10° 97° (E) 3,762 10.4 7.9°
Sets 17:55:35 0° 87° (E) 5,100 11.1 7.2°
